| time (UTC) | temp F | wind direction | speed MPH | gust MPH | rain 1hr in | rain 24hr in | rain mn in | humidity % | barometer mb |
| 20260507230458 | 55 | 294 | 1.0 | 4.0 | 0.00 | 0.20 | 0.20 | 49 | 1008.1 |
| 20260507225959 | 55 | 80 | 2.0 | 7.0 | 0.00 | 0.20 | 0.20 | 48 | 1008.1 |
| 20260507225459 | 55 | 31 | 2.0 | 9.0 | 0.00 | 0.20 | 0.20 | 47 | 1008.1 |
| 20260507224958 | 55 | 69 | 3.0 | 9.0 | 0.00 | 0.20 | 0.20 | 51 | 1008.1 |
| 20260507224458 | 56 | 88 | 0.0 | 5.0 | 0.00 | 0.20 | 0.20 | 47 | 1008.0 |
| 20260507223958 | 56 | 37 | 1.0 | 6.0 | 0.00 | 0.20 | 0.20 | 46 | 1007.9 |
| 20260507223458 | 56 | 61 | 0.0 | 8.0 | 0.00 | 0.20 | 0.20 | 45 | 1007.9 |
| 20260507222458 | 56 | 254 | 4.0 | 9.0 | 0.00 | 0.20 | 0.20 | 48 | 1008.0 |
| 20260507220958 | 56 | 103 | 2.0 | 6.0 | 0.00 | 0.20 | 0.20 | 47 | 1007.9 |
| 20260507215959 | 57 | 283 | 1.0 | 8.0 | 0.00 | 0.20 | 0.20 | 46 | 1007.8 |
| 20260507215458 | 57 | 62 | 1.0 | 10.0 | 0.00 | 0.20 | 0.20 | 46 | 1007.7 |
| 20260507214958 | 57 | 53 | 6.0 | 6.0 | 0.00 | 0.20 | 0.20 | 46 | 1007.7 |
| 20260507214459 | 57 | 273 | 1.0 | 6.0 | 0.00 | 0.20 | 0.20 | 46 | 1007.7 |
| 20260507213958 | 57 | 261 | 1.0 | 6.0 | 0.00 | 0.20 | 0.20 | 46 | 1007.7 |
| 20260507213458 | 57 | 49 | 0.0 | 10.0 | 0.00 | 0.20 | 0.20 | 46 | 1007.6 |
| 20260507212958 | 57 | 286 | 2.0 | 10.0 | 0.00 | 0.20 | 0.20 | 45 | 1007.6 |
| 20260507212458 | 57 | 242 | 5.0 | 8.0 | 0.00 | 0.20 | 0.20 | 46 | 1007.6 |
| 20260507211958 | 57 | 69 | 4.0 | 9.0 | 0.00 | 0.20 | 0.20 | 47 | 1007.6 |
| 20260507210959 | 56 | 65 | 1.0 | 6.0 | 0.00 | 0.20 | 0.20 | 48 | 1007.5 |
| 20260507210458 | 57 | 55 | 0.0 | 5.0 | 0.00 | 0.20 | 0.20 | 46 | 1007.6 |
| 20260507205959 | 57 | 294 | 1.0 | 4.0 | 0.00 | 0.21 | 0.20 | 46 | 1007.6 |
| 20260507205458 | 58 | 261 | 0.0 | 10.0 | 0.00 | 0.21 | 0.20 | 51 | 1007.5 |
| 20260507204959 | 58 | 276 | 2.0 | 10.0 | 0.00 | 0.21 | 0.20 | 47 | 1007.4 |
| 20260507204458 | 57 | 63 | 4.0 | 9.0 | 0.00 | 0.21 | 0.20 | 45 | 1007.4 |
| 20260507203958 | 57 | 51 | 1.0 | 5.0 | 0.00 | 0.21 | 0.20 | 48 | 1007.4 |
| 20260507203458 | 58 | 73 | 0.0 | 6.0 | 0.00 | 0.21 | 0.20 | 45 | 1007.4 |
| 20260507202958 | 58 | 178 | 2.0 | 8.0 | 0.00 | 0.21 | 0.20 | 46 | 1007.4 |
| 20260507201959 | 59 | 65 | 6.0 | 11.0 | 0.00 | 0.21 | 0.20 | 45 | 1007.4 |
| 20260507201458 | 60 | 263 | 3.0 | 11.0 | 0.00 | 0.21 | 0.20 | 43 | 1007.4 |
| 20260507200958 | 61 | 51 | 2.0 | 7.0 | 0.00 | 0.21 | 0.20 | 48 | 1007.5 |
| 20260507200458 | 60 | 259 | 3.0 | 7.0 | 0.00 | 0.21 | 0.20 | 46 | 1007.4 |
| 20260507195958 | 60 | 257 | 2.0 | 9.0 | 0.00 | 0.21 | 0.20 | 47 | 1007.5 |
| 20260507195459 | 60 | 116 | 2.0 | 9.0 | 0.00 | 0.21 | 0.20 | 46 | 1007.6 |
| 20260507194959 | 60 | 76 | 2.0 | 7.0 | 0.00 | 0.21 | 0.20 | 43 | 1007.6 |
| 20260507194500 | 60 | 100 | 2.0 | 7.0 | 0.00 | 0.21 | 0.20 | 47 | 1007.7 |
| 20260507194000 | 61 | 227 | 5.0 | 8.0 | 0.00 | 0.21 | 0.20 | 49 | 1007.6 |
| 20260507193459 | 61 | 277 | 4.0 | 9.0 | 0.00 | 0.21 | 0.20 | 51 | 1007.7 |
| 20260507192958 | 59 | 270 | 1.0 | 14.0 | 0.00 | 0.21 | 0.20 | 47 | 1007.8 |
| 20260507192500 | 59 | 82 | 3.0 | 14.0 | 0.00 | 0.21 | 0.20 | 44 | 1007.8 |
| 20260507192000 | 60 | 90 | 1.0 | 12.0 | 0.00 | 0.21 | 0.20 | 42 | 1007.8 |
| 20260507191500 | 61 | 75 | 2.0 | 7.0 | 0.00 | 0.21 | 0.20 | 44 | 1008.0 |
| 20260507191000 | 62 | 89 | 3.0 | 7.0 | 0.00 | 0.21 | 0.20 | 42 | 1007.9 |
| 20260507190500 | 62 | 283 | 2.0 | 5.0 | 0.00 | 0.21 | 0.20 | 44 | 1008.0 |
| 20260507184958 | 61 | 238 | 3.0 | 9.0 | 0.00 | 0.22 | 0.20 | 42 | 1008.2 |
| 20260507184458 | 61 | 291 | 3.0 | 7.0 | 0.00 | 0.22 | 0.20 | 48 | 1008.2 |
| 20260507183958 | 61 | 93 | 2.0 | 8.0 | 0.00 | 0.22 | 0.20 | 46 | 1008.3 |
| 20260507183458 | 61 | 258 | 3.0 | 8.0 | 0.00 | 0.22 | 0.20 | 50 | 1008.4 |
| 20260507182959 | 61 | 288 | 1.0 | 9.0 | 0.00 | 0.22 | 0.20 | 45 | 1008.4 |
| 20260507182458 | 61 | 290 | 2.0 | 12.0 | 0.00 | 0.22 | 0.20 | 41 | 1008.3 |
| 20260507181958 | 61 | 94 | 6.0 | 8.0 | 0.00 | 0.22 | 0.20 | 43 | 1008.4 |
| 20260507181458 | 60 | 85 | 4.0 | 9.0 | 0.00 | 0.22 | 0.20 | 46 | 1008.4 |
| 20260507180958 | 60 | 292 | 3.0 | 10.0 | 0.00 | 0.22 | 0.20 | 42 | 1008.4 |
| 20260507180458 | 60 | 272 | 1.0 | 11.0 | 0.00 | 0.22 | 0.20 | 43 | 1008.6 |
| 20260507175958 | 60 | 63 | 2.0 | 11.0 | 0.00 | 0.24 | 0.20 | 48 | 1008.7 |
| 20260507175458 | 60 | 311 | 3.0 | 9.0 | 0.00 | 0.24 | 0.20 | 44 | 1008.6 |
| 20260507174958 | 60 | 273 | 2.0 | 10.0 | 0.00 | 0.24 | 0.20 | 45 | 1008.7 |
| 20260507174458 | 60 | 74 | 4.0 | 12.0 | 0.00 | 0.24 | 0.20 | 46 | 1008.8 |
| 20260507173959 | 60 | 302 | 1.0 | 12.0 | 0.00 | 0.24 | 0.20 | 45 | 1008.8 |
| 20260507173458 | 59 | 290 | 2.0 | 10.0 | 0.00 | 0.24 | 0.20 | 43 | 1008.8 |
| 20260507172957 | 60 | 64 | 4.0 | 10.0 | 0.00 | 0.24 | 0.20 | 42 | 1008.9 |
| 20260507171959 | 60 | 226 | 1.0 | 9.0 | 0.00 | 0.24 | 0.20 | 46 | 1009.1 |
| 20260507171501 | 59 | 294 | 0.0 | 9.0 | 0.00 | 0.24 | 0.20 | 49 | 1009.2 |
| 20260507170958 | 59 | 69 | 0.0 | 9.0 | 0.00 | 0.24 | 0.20 | 43 | 1009.3 |
| 20260507170458 | 59 | 117 | 4.0 | 12.0 | 0.00 | 0.24 | 0.20 | 57 | 1009.3 |
| 20260507165958 | 58 | 69 | 1.0 | 12.0 | 0.00 | 0.24 | 0.20 | 50 | 1009.4 |
| 20260507165459 | 59 | 274 | 3.0 | 12.0 | 0.00 | 0.24 | 0.20 | 47 | 1009.4 |
| 20260507164958 | 58 | 317 | 2.0 | 12.0 | 0.00 | 0.24 | 0.20 | 45 | 1009.5 |
| 20260507163458 | 58 | 215 | 4.0 | 10.0 | 0.00 | 0.24 | 0.20 | 49 | 1009.6 |
| 20260507162958 | 57 | 121 | 2.0 | 10.0 | 0.00 | 0.24 | 0.20 | 44 | 1009.6 |
| 20260507162458 | 58 | 34 | 4.0 | 7.0 | 0.00 | 0.24 | 0.20 | 47 | 1009.7 |
| 20260507161458 | 58 | 314 | 1.0 | 9.0 | 0.00 | 0.24 | 0.20 | 54 | 1009.8 |
| 20260507160959 | 57 | 97 | 0.0 | 10.0 | 0.00 | 0.24 | 0.20 | 59 | 1009.9 |
| 20260507160459 | 57 | 34 | 3.0 | 9.0 | 0.00 | 0.24 | 0.20 | 51 | 1010.0 |
| 20260507155958 | 58 | 329 | 2.0 | 9.0 | 0.00 | 0.24 | 0.20 | 48 | 1009.9 |
| 20260507155458 | 58 | 259 | 3.0 | 5.0 | 0.00 | 0.24 | 0.20 | 57 | 1010.0 |
| 20260507154958 | 57 | 74 | 0.0 | 11.0 | 0.00 | 0.24 | 0.20 | 51 | 1010.0 |
| 20260507154458 | 56 | 311 | 3.0 | 11.0 | 0.00 | 0.24 | 0.20 | 51 | 1010.1 |
| 20260507153459 | 55 | 38 | 2.0 | 10.0 | 0.00 | 0.24 | 0.20 | 49 | 1010.4 |
| 20260507152958 | 56 | 77 | 7.0 | 10.0 | 0.00 | 0.24 | 0.20 | 50 | 1010.4 |
| 20260507151958 | 56 | 44 | 2.0 | 8.0 | 0.00 | 0.24 | 0.20 | 52 | 1010.4 |
| 20260507151457 | 56 | 43 | 2.0 | 10.0 | 0.00 | 0.24 | 0.20 | 51 | 1010.5 |
| 20260507150958 | 55 | 5 | 3.0 | 10.0 | 0.00 | 0.24 | 0.20 | 56 | 1010.4 |
| 20260507150458 | 55 | 52 | 5.0 | 11.0 | 0.00 | 0.24 | 0.20 | 54 | 1010.5 |
| 20260507145959 | 55 | 287 | 3.0 | 12.0 | 0.00 | 0.24 | 0.20 | 58 | 1010.4 |
| 20260507145458 | 55 | 50 | 5.0 | 12.0 | 0.00 | 0.24 | 0.20 | 50 | 1010.3 |
| 20260507144458 | 55 | 107 | 2.0 | 9.0 | 0.00 | 0.24 | 0.20 | 61 | 1010.3 |
| 20260507143957 | 55 | 317 | 4.0 | 9.0 | 0.00 | 0.24 | 0.20 | 57 | 1010.4 |
| 20260507143501 | 54 | 134 | 2.0 | 7.0 | 0.00 | 0.24 | 0.20 | 58 | 1010.3 |
| 20260507143000 | 54 | 298 | 3.0 | 5.0 | 0.00 | 0.24 | 0.20 | 59 | 1010.5 |
| 20260507142458 | 53 | 114 | 6.0 | 7.0 | 0.00 | 0.24 | 0.20 | 61 | 1010.5 |
| 20260507141958 | 53 | 289 | 4.0 | 10.0 | 0.00 | 0.24 | 0.20 | 57 | 1010.4 |
| 20260507141458 | 53 | 307 | 1.0 | 11.0 | 0.00 | 0.24 | 0.20 | 64 | 1010.4 |
| 20260507140457 | 52 | 286 | 3.0 | 10.0 | 0.00 | 0.24 | 0.20 | 61 | 1010.7 |
| 20260507135959 | 52 | 81 | 5.0 | 9.0 | 0.00 | 0.24 | 0.20 | 60 | 1010.6 |
| 20260507134959 | 52 | 291 | 2.0 | 10.0 | 0.00 | 0.24 | 0.20 | 63 | 1010.6 |
| 20260507134457 | 51 | 284 | 1.0 | 10.0 | 0.00 | 0.24 | 0.20 | 63 | 1010.4 |
| 20260507133958 | 51 | 325 | 1.0 | 8.0 | 0.00 | 0.24 | 0.20 | 66 | 1010.4 |
| 20260507133458 | 51 | 248 | 5.0 | 8.0 | 0.00 | 0.24 | 0.20 | 65 | 1010.2 |
| 20260507132957 | 50 | 290 | 2.0 | 7.0 | 0.00 | 0.24 | 0.20 | 66 | 1010.4 |
| 20260507132458 | 50 | 83 | 1.0 | 8.0 | 0.00 | 0.24 | 0.20 | 72 | 1010.4 |
| 20260507131458 | 50 | 257 | 3.0 | 7.0 | 0.00 | 0.24 | 0.20 | 75 | 1010.4 |
| 20260507130958 | 49 | 293 | 5.0 | 7.0 | 0.00 | 0.24 | 0.20 | 86 | 1010.5 |
| 20260507130000 | 48 | 305 | 1.0 | 3.0 | 0.00 | 0.24 | 0.20 | 90 | 1010.5 |
| 20260507125458 | 47 | 265 | 0.0 | 4.0 | 0.00 | 0.24 | 0.20 | 90 | 1010.5 |
| 20260507124457 | 47 | 210 | 1.0 | 8.0 | 0.00 | 0.24 | 0.20 | 89 | 1010.4 |
| 20260507123958 | 47 | 275 | 1.0 | 7.0 | 0.00 | 0.24 | 0.20 | 91 | 1010.4 |
| 20260507123458 | 47 | 268 | 0.0 | 5.0 | 0.00 | 0.24 | 0.20 | 92 | 1010.6 |
| 20260507122957 | 46 | 74 | 2.0 | 5.0 | 0.00 | 0.24 | 0.20 | 92 | 1010.6 |
| 20260507122457 | 47 | 135 | 0.0 | 2.0 | 0.00 | 0.24 | 0.20 | 93 | 1010.5 |
| 20260507121958 | 46 | 355 | 1.0 | 4.0 | 0.00 | 0.24 | 0.20 | 93 | 1010.5 |
| 20260507121458 | 46 | 291 | 2.0 | 5.0 | 0.00 | 0.24 | 0.20 | 93 | 1010.5 |
| 20260507120957 | 46 | 302 | 4.0 | 4.0 | 0.00 | 0.24 | 0.20 | 93 | 1010.4 |
| 20260507120458 | 46 | 103 | 1.0 | 7.0 | 0.00 | 0.24 | 0.20 | 93 | 1010.3 |
| 20260507115959 | 46 | 273 | 4.0 | 10.0 | 0.00 | 0.24 | 0.20 | 94 | 1010.1 |
| 20260507114957 | 46 | 72 | 1.0 | 8.0 | 0.00 | 0.24 | 0.20 | 94 | 1010.1 |
| 20260507114457 | 45 | 347 | 1.0 | 8.0 | 0.00 | 0.24 | 0.20 | 94 | 1010.0 |
| 20260507113957 | 45 | 292 | 1.0 | 8.0 | 0.00 | 0.24 | 0.20 | 94 | 1010.1 |
| 20260507113458 | 45 | 355 | 0.0 | 6.0 | 0.00 | 0.24 | 0.20 | 94 | 1010.2 |
| 20260507112957 | 45 | 306 | 1.0 | 8.0 | 0.00 | 0.24 | 0.20 | 94 | 1010.0 |
| 20260507112458 | 46 | 234 | 1.0 | 8.0 | 0.00 | 0.24 | 0.20 | 94 | 1010.1 |
| 20260507111958 | 46 | 78 | 1.0 | 3.0 | 0.00 | 0.24 | 0.20 | 94 | 1010.1 |
| 20260507111459 | 46 | 275 | 2.0 | 3.0 | 0.00 | 0.24 | 0.20 | 94 | 1010.0 |
| 20260507110457 | 46 | 265 | 0.0 | 2.0 | 0.00 | 0.24 | 0.20 | 94 | 1009.9 |
| 20260507105458 | 46 | 265 | 1.0 | 3.0 | 0.00 | 0.24 | 0.20 | 94 | 1009.7 |
| 20260507104957 | 45 | 281 | 1.0 | 4.0 | 0.00 | 0.24 | 0.20 | 94 | 1009.6 |
| 20260507104457 | 45 | 281 | 1.0 | 4.0 | 0.00 | 0.24 | 0.20 | 94 | 1009.6 |
| 20260507103958 | 45 | 223 | 2.0 | 3.0 | 0.01 | 0.24 | 0.20 | 94 | 1009.3 |
| 20260507103458 | 45 | 74 | 0.0 | 3.0 | 0.01 | 0.24 | 0.20 | 94 | 1009.4 |
| 20260507102957 | 46 | 282 | 0.0 | 3.0 | 0.01 | 0.24 | 0.20 | 95 | 1009.7 |
| 20260507102458 | 46 | 282 | 1.0 | 2.0 | 0.01 | 0.24 | 0.20 | 95 | 1009.6 |
| 20260507101458 | 46 | 282 | 2.0 | 3.0 | 0.02 | 0.24 | 0.20 | 94 | 1009.4 |
| 20260507100957 | 46 | 269 | 0.0 | 2.0 | 0.03 | 0.24 | 0.20 | 95 | 1009.3 |
| 20260507100458 | 46 | 269 | 0.0 | 1.0 | 0.04 | 0.24 | 0.20 | 94 | 1009.3 |
| 20260507095959 | 46 | 269 | 0.0 | 2.0 | 0.04 | 0.24 | 0.20 | 94 | 1009.2 |
| 20260507095458 | 46 | 269 | 2.0 | 3.0 | 0.04 | 0.24 | 0.20 | 94 | 1009.1 |
| 20260507094958 | 46 | 269 | 1.0 | 3.0 | 0.05 | 0.24 | 0.20 | 94 | 1009.2 |
| 20260507094458 | 46 | 275 | 0.0 | 2.0 | 0.06 | 0.24 | 0.20 | 94 | 1009.2 |
| 20260507093957 | 46 | 275 | 0.0 | 4.0 | 0.05 | 0.23 | 0.19 | 94 | 1009.0 |
| 20260507093457 | 46 | 275 | 0.0 | 4.0 | 0.05 | 0.23 | 0.19 | 94 | 1008.9 |
| 20260507092958 | 46 | 271 | 1.0 | 2.0 | 0.05 | 0.23 | 0.19 | 94 | 1008.7 |
| 20260507092458 | 46 | 65 | 0.0 | 6.0 | 0.06 | 0.23 | 0.19 | 94 | 1008.8 |
| 20260507091958 | 46 | 63 | 1.0 | 6.0 | 0.05 | 0.22 | 0.18 | 94 | 1008.7 |
| 20260507091457 | 46 | 280 | 1.0 | 3.0 | 0.05 | 0.22 | 0.18 | 94 | 1008.9 |
| 20260507090458 | 46 | 254 | 2.0 | 3.0 | 0.03 | 0.20 | 0.16 | 94 | 1008.7 |
| 20260507090000 | 46 | 267 | 0.0 | 3.0 | 0.03 | 0.20 | 0.16 | 94 | 1009.1 |
| 20260507084958 | 46 | 267 | 1.0 | 4.0 | 0.03 | 0.19 | 0.15 | 94 | 1008.8 |
| 20260507084458 | 46 | 281 | 1.0 | 7.0 | 0.02 | 0.18 | 0.14 | 94 | 1008.5 |
| 20260507083957 | 46 | 278 | 2.0 | 7.0 | 0.02 | 0.18 | 0.14 | 94 | 1008.8 |
| 20260507083458 | 46 | 251 | 1.0 | 4.0 | 0.03 | 0.18 | 0.14 | 94 | 1009.0 |
| 20260507082957 | 46 | 288 | 0.0 | 7.0 | 0.03 | 0.18 | 0.14 | 94 | 1008.6 |
| 20260507082456 | 46 | 291 | 0.0 | 7.0 | 0.03 | 0.17 | 0.13 | 94 | 1008.7 |
| 20260507081456 | 47 | 279 | 1.0 | 7.0 | 0.03 | 0.17 | 0.13 | 94 | 1008.6 |
| 20260507080957 | 47 | 271 | 1.0 | 5.0 | 0.05 | 0.17 | 0.13 | 94 | 1009.0 |
| 20260507080456 | 47 | 282 | 6.0 | 6.0 | 0.05 | 0.17 | 0.13 | 94 | 1009.3 |
| 20260507075959 | 47 | 271 | 1.0 | 5.0 | 0.05 | 0.17 | 0.13 | 94 | 1008.8 |
| 20260507075457 | 47 | 302 | 1.0 | 5.0 | 0.06 | 0.17 | 0.13 | 94 | 1008.6 |
| 20260507074457 | 48 | 206 | 1.0 | 5.0 | 0.07 | 0.16 | 0.12 | 94 | 1008.6 |
| 20260507073959 | 48 | 290 | 2.0 | 4.0 | 0.08 | 0.16 | 0.12 | 94 | 1008.8 |
| 20260507073458 | 48 | 283 | 2.0 | 3.0 | 0.08 | 0.15 | 0.11 | 94 | 1009.0 |
| 20260507072958 | 48 | 264 | 1.0 | 3.0 | 0.09 | 0.15 | 0.11 | 94 | 1009.3 |
| 20260507072458 | 48 | 278 | 2.0 | 2.0 | 0.09 | 0.14 | 0.10 | 94 | 1009.2 |
| 20260507071458 | 49 | 276 | 0.0 | 0.0 | 0.10 | 0.14 | 0.10 | 94 | 1008.9 |
| 20260507070958 | 49 | 276 | 0.0 | 0.0 | 0.08 | 0.12 | 0.08 | 94 | 1008.8 |
| 20260507070458 | 49 | 276 | 0.0 | 0.0 | 0.08 | 0.12 | 0.08 | 94 | 1008.9 |
| 20260507065959 | 49 | 281 | 0.0 | 0.0 | 0.08 | 0.12 | 0.08 | 94 | 1008.9 |
| 20260507065457 | 49 | 281 | 0.0 | 0.0 | 0.07 | 0.11 | 0.07 | 93 | 1008.8 |
| 20260507064958 | 49 | 280 | 0.0 | 1.0 | 0.06 | 0.10 | 0.06 | 93 | 1008.7 |
| 20260507064458 | 49 | 281 | 0.0 | 4.0 | 0.05 | 0.09 | 0.05 | 93 | 1008.6 |
| 20260507063958 | 49 | 84 | 0.0 | 4.0 | 0.04 | 0.08 | 0.04 | 93 | 1008.3 |
| 20260507063457 | 49 | 261 | 0.0 | 2.0 | 0.03 | 0.07 | 0.03 | 93 | 1009.1 |
| 20260507062958 | 49 | 261 | 0.0 | 5.0 | 0.02 | 0.06 | 0.02 | 93 | 1009.0 |
| 20260507062457 | 49 | 261 | 2.0 | 5.0 | 0.01 | 0.05 | 0.01 | 93 | 1008.7 |
| 20260507061957 | 49 | 261 | 1.0 | 5.0 | 0.00 | 0.04 | 0.00 | 93 | 1008.4 |
| 20260507061457 | 49 | 286 | 0.0 | 2.0 | 0.00 | 0.04 | 0.00 | 93 | 1008.2 |
| 20260507060957 | 49 | 286 | 1.0 | 4.0 | 0.00 | 0.04 | 0.00 | 93 | 1007.9 |
| 20260507060457 | 49 | 62 | 0.0 | 4.0 | 0.00 | 0.04 | 0.00 | 93 | 1007.9 |
| 20260507055957 | 49 | 52 | 0.0 | 4.0 | 0.00 | 0.04 | 0.00 | 93 | 1008.0 |
| 20260507055457 | 49 | 301 | 0.0 | 5.0 | 0.00 | 0.04 | 0.00 | 93 | 1008.1 |
| 20260507054957 | 49 | 278 | 3.0 | 5.0 | 0.00 | 0.04 | 0.00 | 93 | 1008.1 |
| 20260507054458 | 50 | 105 | 2.0 | 5.0 | 0.00 | 0.04 | 0.00 | 93 | 1008.2 |
| 20260507054002 | 50 | 41 | 1.0 | 9.0 | 0.00 | 0.04 | 0.00 | 94 | 1008.3 |
| 20260507053457 | 50 | 70 | 0.0 | 9.0 | 0.00 | 0.04 | 0.00 | 94 | 1008.3 |
| 20260507052957 | 50 | 57 | 0.0 | 3.0 | 0.00 | 0.04 | 0.00 | 94 | 1008.4 |
| 20260507052457 | 50 | 71 | 1.0 | 3.0 | 0.00 | 0.04 | 0.00 | 94 | 1008.4 |
| 20260507051958 | 50 | 276 | 2.0 | 3.0 | 0.00 | 0.04 | 0.00 | 94 | 1008.4 |
| 20260507051457 | 50 | 68 | 0.0 | 4.0 | 0.00 | 0.04 | 0.00 | 94 | 1008.4 |
| 20260507050957 | 50 | 257 | 1.0 | 4.0 | 0.00 | 0.04 | 0.00 | 94 | 1008.4 |
| 20260507050457 | 50 | 284 | 2.0 | 4.0 | 0.00 | 0.04 | 0.00 | 95 | 1008.4 |
| 20260507045957 | 50 | 27 | 1.0 | 7.0 | 0.00 | 0.04 | 0.00 | 95 | 1008.3 |
| 20260507045458 | 50 | 85 | 5.0 | 6.0 | 0.00 | 0.04 | 0.00 | 95 | 1008.3 |
| 20260507044958 | 50 | 290 | 1.0 | 4.0 | 0.00 | 0.04 | 0.00 | 95 | 1008.4 |
| 20260507044457 | 50 | 121 | 1.0 | 5.0 | 0.00 | 0.04 | 0.00 | 95 | 1008.5 |
| 20260507043957 | 51 | 263 | 0.0 | 7.0 | 0.00 | 0.04 | 0.00 | 95 | 1008.7 |
| 20260507043457 | 51 | 285 | 2.0 | 7.0 | 0.00 | 0.04 | 0.00 | 95 | 1008.8 |
| 20260507042957 | 52 | 306 | 1.0 | 6.0 | 0.00 | 0.04 | 0.00 | 95 | 1008.7 |
| 20260507042458 | 52 | 69 | 1.0 | 3.0 | 0.00 | 0.04 | 0.00 | 95 | 1008.6 |
| 20260507041458 | 52 | 84 | 0.0 | 1.0 | 0.00 | 0.04 | 0.00 | 95 | 1008.6 |
| 20260507040958 | 52 | 85 | 0.0 | 3.0 | 0.00 | 0.04 | 0.00 | 95 | 1008.4 |
| 20260507040457 | 52 | 84 | 0.0 | 3.0 | 0.00 | 0.04 | 0.00 | 95 | 1008.2 |
| 20260507035459 | 52 | 278 | 0.0 | 3.0 | 0.00 | 0.04 | 0.04 | 95 | 1008.4 |
| 20260507034500 | 53 | 278 | 2.0 | 2.0 | 0.00 | 0.04 | 0.04 | 95 | 1008.3 |
| 20260507034000 | 53 | 288 | 1.0 | 9.0 | 0.00 | 0.04 | 0.04 | 95 | 1008.3 |
| 20260507033500 | 53 | 289 | 2.0 | 10.0 | 0.00 | 0.04 | 0.04 | 95 | 1008.3 |
| 20260507032000 | 55 | 99 | 1.0 | 8.0 | 0.00 | 0.04 | 0.04 | 95 | 1008.6 |
| 20260507031459 | 57 | 65 | 3.0 | 5.0 | 0.00 | 0.04 | 0.04 | 96 | 1008.6 |
| 20260507030459 | 57 | 268 | 4.0 | 4.0 | 0.00 | 0.04 | 0.04 | 96 | 1008.2 |
| 20260507030001 | 57 | 257 | 2.0 | 4.0 | 0.00 | 0.04 | 0.04 | 96 | 1008.3 |
| 20260507025459 | 57 | 257 | 2.0 | 7.0 | 0.00 | 0.04 | 0.04 | 96 | 1008.3 |
| 20260507024959 | 57 | 256 | 4.0 | 8.0 | 0.00 | 0.04 | 0.04 | 96 | 1008.3 |
| 20260507023000 | 57 | 259 | 6.0 | 8.0 | 0.00 | 0.04 | 0.04 | 96 | 1008.2 |
| 20260507021459 | 57 | 250 | 4.0 | 8.0 | 0.00 | 0.04 | 0.04 | 96 | 1008.1 |
| 20260507020959 | 57 | 250 | 5.0 | 9.0 | 0.00 | 0.04 | 0.04 | 96 | 1008.1 |
| 20260507020500 | 57 | 261 | 7.0 | 9.0 | 0.00 | 0.04 | 0.04 | 96 | 1008.2 |
| 20260507020000 | 57 | 241 | 5.0 | 8.0 | 0.00 | 0.04 | 0.04 | 95 | 1008.2 |
| 20260507015458 | 57 | 255 | 4.0 | 7.0 | 0.00 | 0.04 | 0.04 | 95 | 1008.2 |
| 20260507014958 | 56 | 258 | 7.0 | 7.0 | 0.00 | 0.04 | 0.04 | 95 | 1008.2 |
| 20260507013959 | 56 | 263 | 7.0 | 8.0 | 0.00 | 0.04 | 0.04 | 95 | 1008.3 |
| 20260507013458 | 56 | 257 | 7.0 | 8.0 | 0.00 | 0.04 | 0.04 | 95 | 1008.3 |
| 20260507012959 | 56 | 247 | 3.0 | 5.0 | 0.00 | 0.04 | 0.04 | 95 | 1008.2 |
| 20260507012459 | 56 | 237 | 4.0 | 5.0 | 0.00 | 0.04 | 0.04 | 95 | 1008.3 |
| 20260507011959 | 56 | 242 | 3.0 | 7.0 | 0.00 | 0.04 | 0.04 | 95 | 1008.2 |
| 20260507011458 | 56 | 258 | 3.0 | 7.0 | 0.00 | 0.04 | 0.04 | 95 | 1008.2 |
| 20260507010958 | 56 | 257 | 4.0 | 6.0 | 0.00 | 0.04 | 0.04 | 95 | 1008.1 |
| 20260507010458 | 56 | 242 | 3.0 | 6.0 | 0.00 | 0.04 | 0.04 | 95 | 1008.1 |
| 20260507010001 | 56 | 245 | 3.0 | 6.0 | 0.00 | 0.04 | 0.04 | 95 | 1008.0 |
| 20260507005000 | 56 | 236 | 3.0 | 4.0 | 0.00 | 0.04 | 0.04 | 95 | 1007.9 |
| 20260507004459 | 56 | 258 | 1.0 | 4.0 | 0.00 | 0.04 | 0.04 | 95 | 1007.9 |
| 20260507003959 | 56 | 235 | 1.0 | 3.0 | 0.00 | 0.04 | 0.04 | 95 | 1008.0 |
| 20260507003500 | 56 | 235 | 2.0 | 4.0 | 0.00 | 0.04 | 0.04 | 95 | 1008.0 |
| 20260507002500 | 56 | 234 | 1.0 | 5.0 | 0.00 | 0.04 | 0.04 | 95 | 1008.0 |
| 20260507001958 | 56 | 234 | 2.0 | 5.0 | 0.00 | 0.04 | 0.04 | 95 | 1007.9 |
| 20260507001500 | 57 | 234 | 2.0 | 7.0 | 0.00 | 0.04 | 0.04 | 95 | 1007.9 |
| 20260507000959 | 57 | 240 | 3.0 | 7.0 | 0.00 | 0.04 | 0.04 | 95 | 1007.8 |
| 20260507000459 | 57 | 232 | 4.0 | 8.0 | 0.00 | 0.04 | 0.04 | 95 | 1007.7 |
| 20260506234958 | 56 | 251 | 5.0 | 9.0 | 0.00 | 0.04 | 0.04 | 95 | 1008.0 |
| 20260506234458 | 56 | 261 | 3.0 | 7.0 | 0.00 | 0.04 | 0.04 | 95 | 1007.9 |
| 20260506234001 | 56 | 240 | 5.0 | 7.0 | 0.00 | 0.04 | 0.04 | 95 | 1007.9 |
| 20260506233459 | 56 | 239 | 4.0 | 7.0 | 0.00 | 0.04 | 0.04 | 95 | 1007.9 |
| 20260506232959 | 56 | 237 | 4.0 | 7.0 | 0.00 | 0.04 | 0.04 | 95 | 1007.9 |
| 20260506232459 | 56 | 241 | 5.0 | 7.0 | 0.00 | 0.04 | 0.04 | 95 | 1007.9 |
| 20260506231959 | 56 | 240 | 4.0 | 5.0 | 0.00 | 0.04 | 0.04 | 95 | 1007.9 |
| 20260506231459 | 56 | 243 | 3.0 | 7.0 | 0.00 | 0.04 | 0.04 | 95 | 1007.8 |